Regional Weather Roundup
Issued by NWS Northern Indiana

Home | Current Version | Previous Version | Text Only | Print | Product List | Glossary On
Versions: 1 2 3 4 5 6 7 8 9 10 11 12 13 14 15 16 17 18 19 20 21 22 23 24 25 26 27 28 29 30 31 32 33 34 35 36 37 38 39 40 41 42 43 44 45 46 47 48 49 50
000
ASUS43 KIWX 310710
RWRIWX

KIWX WEATHER ROUNDUP
NATIONAL WEATHER SERVICE NORTHERN INDIANA
300 AM EDT SUN AUG 31 2014

NOTE: "FAIR" INDICATES FEW OR NO CLOUDS BELOW 12,000 FEET WITH NO
SIGNIFICANT WEATHER AND/OR OBSTRUCTIONS TO VISIBILITY.

* THESE STATIONS ARE NOT UNDER NWS QUALITY CONTROL. THEY ALSO MAY NOT
  REPORT WEATHER SUCH AS PRECIPITATION OR FOG.

INZ001>027-310800-
NORTHERN INDIANA

CITY           SKY/WX    TMP DP  RH WIND       PRES   REMARKS
GARY*          CLOUDY    71  68  92 CALM      29.93S
VALPARAISO     CLOUDY    67  65  93 S6        29.94F
MICHIGAN CITY* CLOUDY    66  64  94 CALM      29.93F
LAPORTE*       CLOUDY    67  65  94 SW3       29.94F
KNOX*          CLOUDY    68  65  90 S6        29.93F
SOUTH BEND     CLOUDY    70  66  87 S6        29.94F
GOSHEN         CLOUDY    74  70  87 S8        29.95S FOG
MONTICELLO*    RAIN      67  65  96 SW7       29.96F
LOGANSPORT*    RAIN      68  64  88 S6        29.97F
ROCHESTER*     CLOUDY    72  70  94 SW8       29.96S
WARSAW*        CLOUDY    72  70  94 SW5       29.96S
ANGOLA*        CLOUDY    73  64  73 SW5       29.96S
FORT WAYNE     CLOUDY    72  69  90 S13       29.98S
HUNTINGTON*    CLOUDY    71  69  92 SW7       29.97S
PERU/GRISSOM   LGT RAIN  71  71 100 SW9       29.99R
MARION*        CLOUDY    69  67  94 SW3       29.99F FOG

$$
INZ028>050-310800-
CENTRAL INDIANA

CITY           SKY/WX    TMP DP  RH WIND       PRES   REMARKS
LAFAYETTE      HVY RAIN  67  66  97 CALM      29.97S FOG
KOKOMO*        CLOUDY    72  66  83 W8        29.99S
MUNCIE*        CLOUDY    71  66  84 SW6       30.00F
INDIANAPOLIS   CLOUDY    70  67  90 S8        29.98F

$$
MIZ043>046-050>051-056>058-064>065-071>073-077>080-310800-
SOUTHWEST LOWER MICHIGAN

CITY           SKY/WX    TMP DP  RH WIND       PRES   REMARKS
BATTLE CREEK   CLOUDY    69  67  93 S7        29.94F
BENTON HARBOR  MOCLDY    69  67  93 SW3       29.91F
COLDWATER*     CLOUDY    69  68  96 CALM      29.96S
HILLSDALE*     LGT RAIN  69  69 100 W3        29.98S
HOLLAND        MOCLDY    69  67  93 SE3       29.92S
GRAND RAPIDS   CLOUDY    71  71 100 SW6       29.92S
KALAMAZOO      CLOUDY    70  67  90 S6        29.94S
STURGIS*         N/A     72  70  94 S3        29.95S FOG
THREE RIVERS*  MOCLDY    71  70  97 CALM      29.94F FOG

$$
OHZ001>008-015>018-024>025-310800-
NORTHWEST OHIO

CITY           SKY/WX    TMP DP  RH WIND       PRES   REMARKS
WAUSEON*       MOCLDY    73  70  88 SW9       29.96F
DEFIANCE       CLOUDY    74  68  81 SW8       29.97S
FINDLAY        CLOUDY    74  67  78 SW10      29.98F
TOLEDO EXPRESS CLOUDY    74  68  81 SW9       29.96S
TOLEDO METCALF CLOUDY    75  68  78 SW10      29.97S
LIMA           CLOUDY    74  67  78 SW8       30.00S

$$
&&



USA.gov is the U.S. government's official web portal to all federal, state and local government web resources and services.